Location: Bakov nad Jizerou
(50.4784°N, 14.9394°E)
Time: 15:33:51
(UTC+00:00)

Cosmos 1607 - Pass Details

Date: 16 June 2021
Orbit: 911 x 991 km, 65.0° (Epoch: 03 August)

Event Time Altitude Azimuth Distance (km) Brightness Sun altitude
Rises 22:34:49 0° 318° (NW) 3,706 8.0 -15.9°
Reaches altitude 10° 22:37:25 10° 316° (NW) 2,747 7.1 -16.0°
Maximum altitude 22:43:48 66° 236° (SW) 1,056 4.0 -16.0°
Enters shadow 22:47:52 23° 160° (SSE) 1,931 5.0 -16.1°
